Iron Station, NC

6:09 PM EST on December 06, 2016 (GMT -0500)
Lincolnton-Lincoln County Regional

Weather History for KIPJ - September, 2012

Change the Weather History Date:

Saturday, September 22, 2012

  Actual Average (KCLT) Record (KCLT)
Temperature  
Mean Temperature 72 °F 69 °F  
Max Temperature 86 °F 79 °F 98 °F (1895)
Min Temperature 57 °F 58 °F 43 °F (1918)
Degree Days  
Heating Degree Days 0 1  
Month to date heating degree days 7  
Since 1 July heating degree days 7  
Cooling Degree Days 6 5  
Month to date cooling degree days 168  
Year to date cooling degree days 1445  
Growing Degree Days 22 (Base 50)    
Moisture  
Dew Point 60 °F    
Average Humidity 73    
Maximum Humidity 100    
Minimum Humidity 40    
Precipitation  
Precipitation 0.01 in 0.10 in 2.92 in (1989)
Month to date precipitation 2.35  
Year to date precipitation 30.95  
Snow  
Snow 0.00 in 0.00 in 0.00 in ()
Month to date snowfall 0.0  
Since 1 July snowfall 0.0  
Since 1 September snowfall 0.0  
Snow Depth -    
Sea Level Pressure  
Sea Level Pressure 29.98 in    
Wind  
Wind Speed 3 mph (SW)    
Max Wind Speed 12 mph    
Max Gust Speed 20 mph    
Visibility 8 miles    
Events Rain    
T = Trace of Precipitation, MM = Missing Value Source: NWS Daily Summary

Daily Weather History Graph

Daily Weather History Graph

Search for Another Location

Airport or City:

Trip Planner

Search our weather history database for the weather conditions in past years. The results will help you decide how hot, cold, wet, or windy it might be!

Date:

Astronomy

Sep. 22, 2012 Rise Set
Actual Time 7:12 AM EDT 7:20 PM EDT
Civil Twilight 6:47 AM EDT 7:46 PM EDT
Nautical Twilight 6:17 AM EDT 8:15 PM EDT
Astronomical Twilight 5:47 AM EDT 8:45 PM EDT
Moon 2:17 PM EDT (9/22) No Moon Set
Length of Visible Light 12h 58m
Length of Day
12h 07m
Waxing Crescent, 48% of the Moon is Illuminated
Sep 22
Waxing Crescent
Sep 22
First Quarter
Sep 29
Full
Oct 8
Last Quarter
Oct 15
New

Hourly Weather History & Observations

Time (EDT) Temp. Heat Index Dew Point Humidity Pressure Visibility Wind Dir Wind Speed Gust Speed Precip Events Conditions
12:15 AM 64.4 °F - 62.6 °F 94% 30.02 in 10.0 mi Calm Calm - N/A   Clear
12:35 AM 60.8 °F - 60.8 °F 100% 30.02 in 7.0 mi Calm Calm - N/A   Clear
12:55 AM 60.8 °F - 59.0 °F 94% 30.02 in 4.0 mi Calm Calm - N/A   Clear
1:15 AM 60.8 °F - 59.0 °F 94% 30.01 in 4.0 mi Calm Calm - N/A   Clear
1:35 AM 60.8 °F - 59.0 °F 94% 30.01 in 7.0 mi Calm Calm - N/A   Clear
1:55 AM 59.0 °F - 59.0 °F 100% 30.01 in 4.0 mi Calm Calm - N/A   Clear
2:15 AM 59.0 °F - 59.0 °F 100% 30.00 in 2.0 mi Calm Calm - N/A   Clear
2:35 AM 59.0 °F - 59.0 °F 100% 30.01 in 5.0 mi Calm Calm - N/A   Clear
2:55 AM 59.0 °F - 59.0 °F 100% 30.01 in 4.0 mi Calm Calm - N/A   Clear
3:15 AM 59.0 °F - 59.0 °F 100% 30.00 in 4.0 mi Calm Calm - N/A   Clear
3:35 AM 59.0 °F - 59.0 °F 100% 30.01 in 4.0 mi Calm Calm - N/A   Clear
3:55 AM 59.0 °F - 59.0 °F 100% 30.00 in 5.0 mi SW 3.5 mph - N/A   Clear
4:15 AM 62.6 °F - 62.6 °F 100% 30.00 in 10.0 mi SSW 4.6 mph - N/A   Clear
4:35 AM 62.6 °F - 60.8 °F 94% 30.00 in 10.0 mi Calm Calm - N/A   Clear
4:55 AM 62.6 °F - 60.8 °F 94% 30.00 in 10.0 mi SSW 3.5 mph - N/A   Clear
5:15 AM 62.6 °F - 60.8 °F 94% 30.00 in 7.0 mi Calm Calm - N/A   Clear
5:35 AM 60.8 °F - 60.8 °F 100% 30.00 in 7.0 mi SSW 3.5 mph - N/A   Clear
5:55 AM 62.6 °F - 60.8 °F 94% 30.00 in 10.0 mi Calm Calm - N/A   Clear
6:15 AM 59.0 °F - 59.0 °F 100% 30.00 in 7.0 mi Calm Calm - N/A   Clear
6:35 AM 59.0 °F - 59.0 °F 100% 30.01 in 3.0 mi Calm Calm - N/A   Clear
6:55 AM 59.0 °F - 59.0 °F 100% 30.01 in 4.0 mi Calm Calm - N/A   Clear
7:15 AM 59.0 °F - 57.2 °F 94% 30.01 in 2.0 mi Calm Calm - N/A   Clear
7:35 AM 57.2 °F - 57.2 °F 100% 30.01 in 1.2 mi Calm Calm - N/A   Mist
7:55 AM 59.0 °F - 59.0 °F 100% 30.01 in 2.5 mi Calm Calm - N/A   Clear
8:15 AM 60.8 °F - 60.8 °F 100% 30.01 in 4.0 mi Calm Calm - N/A   Clear
8:35 AM 62.6 °F - 62.6 °F 100% 30.01 in 5.0 mi Calm Calm - N/A   Clear
8:55 AM 68.0 °F - 64.4 °F 88% 30.01 in 10.0 mi SW 5.8 mph - N/A   Clear
9:15 AM 69.8 °F - 64.4 °F 83% 30.01 in 10.0 mi SW 8.1 mph - N/A   Clear
9:35 AM 71.6 °F - 62.6 °F 73% 30.01 in 10.0 mi SW 6.9 mph - N/A   Clear
9:55 AM 71.6 °F - 62.6 °F 73% 30.01 in 10.0 mi SW 10.4 mph - N/A   Clear
10:15 AM 73.4 °F - 62.6 °F 69% 30.01 in 10.0 mi SW 8.1 mph - N/A   Clear
10:35 AM 75.2 °F - 62.6 °F 65% 30.00 in 10.0 mi West 8.1 mph - N/A   Clear
10:55 AM 77.0 °F - 60.8 °F 57% 30.00 in 10.0 mi WSW 10.4 mph - N/A   Clear
11:15 AM 77.0 °F - 60.8 °F 57% 30.00 in 10.0 mi WSW 9.2 mph - N/A   Clear
11:35 AM 78.8 °F - 60.8 °F 54% 30.00 in 10.0 mi SW 8.1 mph - N/A   Clear
11:55 AM 78.8 °F - 59.0 °F 51% 29.99 in 10.0 mi SW 9.2 mph - N/A   Clear
12:15 PM 80.6 °F 80.8 °F 57.2 °F 45% 29.98 in 10.0 mi WSW 6.9 mph - N/A   Clear
12:35 PM 80.6 °F 80.8 °F 57.2 °F 45% 29.98 in 10.0 mi SW 8.1 mph - N/A   Clear
12:55 PM 82.4 °F 82.0 °F 57.2 °F 42% 29.97 in 10.0 mi SW 6.9 mph - N/A   Clear
1:15 PM 82.4 °F 82.0 °F 57.2 °F 42% 29.97 in 10.0 mi SW 10.4 mph - N/A   Clear
1:35 PM 82.4 °F 82.5 °F 59.0 °F 45% 29.96 in 10.0 mi WSW 11.5 mph - N/A   Clear
1:55 PM 82.4 °F 82.0 °F 57.2 °F 42% 29.96 in 10.0 mi SSW 6.9 mph 19.6 mph N/A   Clear
2:15 PM 82.4 °F 82.5 °F 59.0 °F 45% 29.95 in 10.0 mi SSW 8.1 mph - N/A   Clear
2:35 PM 82.4 °F 82.5 °F 59.0 °F 45% 29.94 in 10.0 mi SW 10.4 mph - N/A   Clear
2:55 PM 82.4 °F 82.5 °F 59.0 °F 45% 29.93 in 10.0 mi SSW 6.9 mph 17.3 mph N/A   Clear
3:15 PM 84.2 °F 83.8 °F 59.0 °F 42% 29.93 in 10.0 mi SW 8.1 mph - N/A   Clear
3:35 PM 82.4 °F 82.5 °F 59.0 °F 45% 29.93 in 10.0 mi SSW 8.1 mph - N/A   Clear
3:55 PM 86.0 °F 85.4 °F 59.0 °F 40% 29.92 in 10.0 mi SW 10.4 mph - N/A   Clear
4:15 PM 84.2 °F 83.8 °F 59.0 °F 42% 29.92 in 10.0 mi WSW 10.4 mph 16.1 mph N/A   Clear
4:35 PM 84.2 °F 83.8 °F 59.0 °F 42% 29.92 in 10.0 mi SW 10.4 mph - N/A   Scattered Clouds
4:55 PM 82.4 °F 82.5 °F 59.0 °F 45% 29.92 in 10.0 mi SSW 8.1 mph - N/A   Scattered Clouds
5:15 PM 82.4 °F 82.5 °F 59.0 °F 45% 29.92 in 10.0 mi SW 10.4 mph - N/A   Clear
5:35 PM 82.4 °F 82.5 °F 59.0 °F 45% 29.92 in 10.0 mi SW 8.1 mph - N/A   Scattered Clouds
5:55 PM 80.6 °F 81.1 °F 59.0 °F 48% 29.92 in 10.0 mi SW 5.8 mph - N/A   Scattered Clouds
6:15 PM 78.8 °F - 60.8 °F 54% 29.92 in 10.0 mi SSW 3.5 mph - N/A   Mostly Cloudy
6:35 PM 78.8 °F - 60.8 °F 54% 29.93 in 10.0 mi West 3.5 mph - N/A   Overcast
6:55 PM 78.8 °F - 60.8 °F 54% 29.93 in 10.0 mi SW 4.6 mph - N/A   Mostly Cloudy
7:15 PM 77.0 °F - 60.8 °F 57% 29.93 in 10.0 mi Calm Calm - N/A   Mostly Cloudy
7:35 PM 75.2 °F - 62.6 °F 65% 29.94 in 10.0 mi SSW 3.5 mph - N/A   Overcast
7:55 PM 73.4 °F - 62.6 °F 69% 29.94 in 10.0 mi SSW 3.5 mph - N/A   Mostly Cloudy
8:15 PM 71.6 °F - 62.6 °F 73% 29.95 in 10.0 mi SW 3.5 mph - N/A   Overcast
8:35 PM 73.4 °F - 62.6 °F 69% 29.95 in 10.0 mi SSW 11.5 mph 16.1 mph N/A Rain Rain
8:55 PM 73.4 °F - 60.8 °F 65% 29.96 in 10.0 mi NNW 3.5 mph - N/A   Mostly Cloudy
9:15 PM 73.4 °F - 60.8 °F 65% 29.97 in 10.0 mi WSW 3.5 mph - N/A Rain Rain
9:35 PM 69.8 °F - 64.4 °F 83% 29.98 in 10.0 mi Calm Calm - 0.01 in   Overcast
9:55 PM 69.8 °F - 64.4 °F 83% 29.98 in 10.0 mi SW 3.5 mph - 0.01 in   Overcast
10:15 PM 68.0 °F - 66.2 °F 94% 29.99 in 10.0 mi Calm Calm - N/A   Overcast
10:35 PM 69.8 °F - 62.6 °F 78% 30.00 in 10.0 mi Calm Calm - N/A   Overcast
10:55 PM 69.8 °F - 59.0 °F 68% 30.01 in 10.0 mi Calm Calm - N/A   Scattered Clouds
11:15 PM 69.8 °F - 59.0 °F 68% 30.02 in 10.0 mi Calm Calm - N/A   Mostly Cloudy
11:35 PM 68.0 °F - 57.2 °F 68% 30.02 in 10.0 mi NNW 3.5 mph - N/A   Mostly Cloudy
11:55 PM 69.8 °F - 51.8 °F 53% 30.03 in 10.0 mi WNW 3.5 mph - N/A   Overcast